Location: Chowchilla Mountain
(37.5599°N, 119.7546°W)
Time: 12:35:16
(UTC+00:00)

USA 229 - Pass Details

Date: 05 August 2024
Orbit: 890 x 1322 km, 63.4° (Epoch: 31 August)

Event Time Altitude Azimuth Distance (km) Brightness Sun altitude
Rises 12:02:58 0° 326° (NW) 4,050 6.7 -12.1°
Reaches altitude 10° 12:05:36 10° 326° (NW) 3,140 6.1 -11.7°
Maximum altitude 12:13:17 82° 240° (WSW) 1,287 4.0 -10.4°
Drops below altitude 10° 12:21:27 10° 154° (SSE) 3,331 6.3 -9.0°
Sets 12:24:20 0° 153° (SSE) 4,308 6.8 -8.5°
